Home   Weather   Aschaffenburg   Past weeks

Flag for Germany Past Weather in Aschaffenburg, Bavaria, Germany — Yesterday and Last 2 Weeks

Now
61 °F

Partly cloudy.


Feels Like: 61 °F
Forecast: 57 / 70 °F
Wind: 9 mph from Southwest

Location: Frankfurt-M-Flughafen Airport

Current Time: Aug 18, 2017 at 10:08:19 pm

Latest Report: Aug 18, 2017 at 9:20 pm


Visibility: N/A

Pressure: 29.98 "Hg

Humidity: 94%

Dew Point: 59 °F

Location of AschaffenburgLocation

Past Weather in Aschaffenburg — Graph

°F

Aschaffenburg Temperature Yesterday

Maximum temperature yesterday: 81 °F (at 2:50 pm)
Minimum temperature yesterday: 61 °F (at 5:20 am)
Average temperature yesterday: 71 °F

High & Low Weather Summary for the Past Weeks

 TemperatureHumidityPressure
High82 °F (Aug 14, 4:50 pm)100% (Aug 6, 5:50 am)30.21 "Hg (Aug 6, 5:50 am)
Low52 °F (Aug 6, 5:50 am)30% (Aug 7, 3:50 pm)29.83 "Hg (Aug 8, 6:20 am)
Average66 °F74%30.04 "Hg
* Reported Aug 3 9:20 pm — Aug 18 9:20 pm, Aschaffenburg. Weather by CustomWeather, © 2017

Note: Actual official high and low records may vary slightly from our data, if they occured in-between our weather recording intervals... More about our weather records

Advertising

Aschaffenburg Weather History for the Previous 24 Hours

Scroll right to see more
 ConditionsComfort  
Time TempWeatherWind HumidityBarometerVisibility
9:20 pm
Fri, Aug 18
61 °FPartly cloudy.9 mph94%29.98 "HgN/A
8:20 pm63 °FLight rain. Scattered clouds.10 mph94%29.95 "HgN/A
7:50 pm63 °FLight rain. Broken clouds.5 mph94%29.92 "HgN/A
7:20 pm63 °FLight rain. More clouds than sun.7 mph94%29.95 "HgN/A
6:59 pm63 °FRain. More clouds than sun.12 mph94%29.95 "HgN/A
6:20 pm64 °FBroken clouds.12 mph88%29.92 "HgN/A
5:50 pm66 °FBroken clouds.10 mph88%29.89 "HgN/A
5:20 pm66 °FBroken clouds.9 mph94%29.89 "HgN/A
4:52 pm64 °FThunderstorms. Broken clouds.22 mph100%29.89 "Hg2 mi
4:50 pm64 °FStrong thunderstorms. Broken clouds.26 mph100%29.92 "Hg1 mi
4:20 pm72 °FSprinkles. Broken clouds.12 mph73%29.86 "HgN/A
3:50 pm77 °FSprinkles. Broken clouds.12 mph61%29.86 "HgN/A
3:20 pm77 °FBroken clouds.13 mph57%29.86 "HgN/A
2:50 pm79 °FBroken clouds.15 mph54%29.89 "HgN/A
2:20 pm77 °FScattered clouds.10 mph61%29.89 "HgN/A
1:50 pm77 °FScattered clouds.7 mph65%29.89 "HgN/A
1:20 pm77 °FBroken clouds.8 mph65%29.92 "HgN/A
12:50 pm75 °FBroken clouds.10 mph69%29.95 "HgN/A
12:20 pm75 °FBroken clouds.10 mph69%29.95 "HgN/A
11:50 am73 °FBroken clouds.13 mph74%29.95 "HgN/A
11:20 am73 °FBroken clouds.14 mph74%29.98 "HgN/A
10:50 am72 °FPartly sunny.9 mph78%29.95 "HgN/A
10:20 am70 °FLight rain. Broken clouds.9 mph83%29.95 "HgN/A
9:50 am70 °FLight rain. Broken clouds.8 mph78%29.95 "HgN/A
9:20 am70 °FBroken clouds.9 mph78%29.95 "HgN/A
8:50 am68 °FBroken clouds.8 mph83%29.98 "HgN/A
8:20 am66 °FBroken clouds.6 mph88%29.98 "HgN/A
7:50 am66 °FBroken clouds.3 mph88%29.95 "HgN/A
7:20 am64 °FBroken clouds.6 mph94%29.98 "HgN/A
6:50 am64 °FBroken clouds.3 mph94%29.98 "HgN/A
6:20 am63 °FBroken clouds.3 mph94%29.98 "HgN/A
5:50 am63 °FPassing clouds.3 mph94%29.98 "HgN/A
5:20 am64 °FClear.2 mph94%29.98 "Hg10 mi
4:50 am64 °FClear.2 mph88%29.98 "Hg10 mi
4:20 am64 °FClear.2 mph94%30.01 "Hg10 mi
3:50 am64 °FClear.1 mph94%30.01 "Hg10 mi
3:20 am64 °FClear.1 mph88%30.01 "Hg10 mi
2:50 am63 °FClear.2 mph94%30.01 "Hg10 mi
2:20 am64 °FClear.2 mph88%30.01 "Hg10 mi
1:50 am64 °FPassing clouds.5 mph88%30.01 "HgN/A
1:20 am66 °FClear.2 mph88%30.01 "Hg10 mi
12:50 am66 °FPassing clouds.3 mph83%30.01 "HgN/A
12:20 am66 °FClear.3 mph83%30.01 "Hg10 mi
11:50 pm
Thu, Aug 17
68 °FClear.6 mph78%30.04 "Hg10 mi
11:20 pm68 °FClear.3 mph83%30.04 "Hg10 mi
10:50 pm70 °FPassing clouds.3 mph73%30.04 "HgN/A
10:20 pm70 °FPassing clouds.3 mph73%30.04 "HgN/A
Weather by CustomWeather, © 2017

See weather overviewHow to use our weather pages